Location: Unspecified
(0.0000°N, 0.0000°E)
Time: 12:15:23
(UTC+00:00)

Tianhe-1 - Pass Details

Date: 11 June 2021
Orbit: 375 x 386 km, 41.5° (Epoch: 18 June)

Event Time Altitude Azimuth Distance (km) Brightness Sun altitude
Exits shadow 03:50:52 13° 58° (ENE) 1,210 4.4 -29.4°
Drops below altitude 10° 03:51:19 10° 56° (NE) 1,390 4.8 -29.3°
Sets 03:53:24 0° 52° (NE) 2,242 6.1 -28.8°
